• En España
  • Lista de países
  • Para 7 días
  • Temperatura del agua
  • Mapa Satelital
  • El tiempo en el mapa
  • Informadores
  • user-avatar
    Iniciar sesión

    Tiempo cada hora Pogarino

    Hoy, 25 Mayo, Viernes

    Tiempo Temperatura Precipitaciones Viento Presión Humedad
    00:00 +10°C° 0 mm 2 mps 752 mmHg 80%
    01:00 +9°C° 0 mm 2 mps 752 mmHg 78%
    02:00 +8°C° 0 mm 2 mps 752 mmHg 83%
    03:00 +8°C° 0 mm 2 mps 753 mmHg 78%
    04:00 +8°C° 0 mm 2 mps 753 mmHg 72%
    05:00 +9°C° 0 mm 2 mps 753 mmHg 67%
    06:00 +12°C° 0 mm 2 mps 754 mmHg 59%
    07:00 +14°C° 0 mm 2 mps 754 mmHg 51%
    08:00 +16°C° 0 mm 3 mps 754 mmHg 43%
    09:00 +17°C° 0 mm 3 mps 754 mmHg 40%
    10:00 +18°C° 0 mm 3 mps 754 mmHg 38%
    11:00 +19°C° 0 mm 2 mps 754 mmHg 35%
    12:00 +19°C° 0 mm 2 mps 754 mmHg 34%
    13:00 +20°C° 0 mm 2 mps 754 mmHg 34%
    14:00 +21°C° 0 mm 2 mps 754 mmHg 33%
    15:00 +20°C° 0 mm 2 mps 754 mmHg 35%
    16:00 +20°C° 0 mm 2 mps 754 mmHg 36%
    17:00 +20°C° 0 mm 2 mps 754 mmHg 38%
    18:00 +19°C° 0 mm 1 mps 754 mmHg 46%
    19:00 +16°C° 0 mm 1 mps 755 mmHg 53%
    20:00 +14°C° 0 mm 1 mps 755 mmHg 61%
    21:00 +13°C° 0 mm 1 mps 755 mmHg 63%
    22:00 +12°C° 0 mm 1 mps 755 mmHg 65%
    23:00 +11°C° 0 mm 1 mps 756 mmHg 67%

    Mañana, 26 Mayo, Sábado

    Tiempo Temperatura Precipitaciones Viento Presión Humedad
    00:00 +11°C° 0 mm 1 mps 756 mmHg 69%
    01:00 +10°C° 0 mm 1 mps 756 mmHg 71%
    02:00 +10°C° 0 mm 1 mps 757 mmHg 72%
    03:00 +10°C° 0 mm 1 mps 757 mmHg 71%
    04:00 +11°C° 0 mm 1 mps 757 mmHg 70%
    05:00 +11°C° 0 mm 1 mps 757 mmHg 68%
    06:00 +14°C° 0 mm 2 mps 758 mmHg 61%
    07:00 +16°C° 0 mm 2 mps 758 mmHg 53%
    08:00 +18°C° 0 mm 2 mps 758 mmHg 45%
    09:00 +19°C° 0 mm 2 mps 758 mmHg 42%
    10:00 +21°C° 0 mm 2 mps 758 mmHg 38%
    11:00 +23°C° 0 mm 2 mps 757 mmHg 35%
    12:00 +23°C° 0 mm 2 mps 757 mmHg 34%
    13:00 +24°C° 0 mm 2 mps 757 mmHg 34%
    14:00 +24°C° 0 mm 2 mps 757 mmHg 34%
    15:00 +24°C° 0 mm 2 mps 756 mmHg 36%
    16:00 +24°C° 0 mm 2 mps 756 mmHg 38%
    17:00 +23°C° 0 mm 2 mps 755 mmHg 40%
    18:00 +20°C° 0 mm 2 mps 755 mmHg 49%
    19:00 +18°C° 0 mm 2 mps 755 mmHg 57%
    20:00 +16°C° 0 mm 2 mps 755 mmHg 66%
    21:00 +15°C° 0 mm 2 mps 755 mmHg 68%
    22:00 +14°C° 0 mm 2 mps 755 mmHg 70%
    23:00 +13°C° 0 mm 2 mps 755 mmHg 73%

    Pasado mañana, 27 Mayo, Domingo

    Tiempo Temperatura Precipitaciones Viento Presión Humedad
    00:00 +13°C° 0 mm 2 mps 755 mmHg 74%
    01:00 +13°C° 0 mm 2 mps 755 mmHg 74%
    02:00 +12°C° 0 mm 2 mps 755 mmHg 75%
    03:00 +12°C° 0 mm 3 mps 755 mmHg 75%
    04:00 +12°C° 0 mm 3 mps 755 mmHg 75%
    05:00 +13°C° 0 mm 3 mps 754 mmHg 74%
    06:00 +16°C° 0 mm 3 mps 754 mmHg 69%
    07:00 +17°C° 0 mm 4 mps 754 mmHg 64%
    08:00 +19°C° 0 mm 4 mps 754 mmHg 59%
    09:00 +20°C° 0 mm 4 mps 753 mmHg 55%
    10:00 +22°C° 0 mm 4 mps 753 mmHg 52%
    11:00 +23°C° 0 mm 4 mps 753 mmHg 48%
    12:00 +23°C° 0 mm 4 mps 753 mmHg 48%
    13:00 +25°C° 0 mm 4 mps 752 mmHg 47%
    14:00 +25°C° 0 mm 4 mps 752 mmHg 47%
    15:00 +23°C° 0,1 mm 4 mps 752 mmHg 47%
    16:00 +23°C° 0,1 mm 4 mps 752 mmHg 47%
    17:00 +22°C° 0,1 mm 4 mps 752 mmHg 48%
    18:00 +20°C° 0 mm 3 mps 752 mmHg 49%
    19:00 +18°C° 0 mm 3 mps 752 mmHg 50%
    20:00 +16°C° 0 mm 3 mps 753 mmHg 51%
    21:00 +13°C° 0 mm 3 mps 753 mmHg 53%
    22:00 +12°C° 0 mm 2 mps 753 mmHg 55%
    23:00 +10°C° 0 mm 2 mps 754 mmHg 57%

    28 Mayo, Lunes

    Tiempo Temperatura Precipitaciones Viento Presión Humedad
    00:00 +9°C° 0 mm 2 mps 754 mmHg 59%
    01:00 +9°C° 0 mm 2 mps 755 mmHg 61%
    02:00 +8°C° 0 mm 2 mps 755 mmHg 63%
    03:00 +8°C° 0 mm 2 mps 756 mmHg 61%
    04:00 +9°C° 0 mm 2 mps 756 mmHg 59%
    05:00 +9°C° 0 mm 2 mps 756 mmHg 57%
    06:00 +12°C° 0 mm 2 mps 757 mmHg 51%
    07:00 +14°C° 0 mm 2 mps 757 mmHg 46%
    08:00 +16°C° 0 mm 2 mps 757 mmHg 41%
    09:00 +17°C° 0 mm 2 mps 757 mmHg 36%
    10:00 +18°C° 0 mm 2 mps 757 mmHg 32%
    11:00 +19°C° 0 mm 2 mps 757 mmHg 28%
    12:00 +20°C° 0 mm 2 mps 757 mmHg 27%
    13:00 +21°C° 0 mm 2 mps 757 mmHg 27%
    14:00 +21°C° 0 mm 2 mps 756 mmHg 26%
    15:00 +21°C° 0 mm 2 mps 756 mmHg 28%
    16:00 +21°C° 0 mm 2 mps 756 mmHg 30%
    17:00 +22°C° 0 mm 1 mps 756 mmHg 32%
    18:00 +19°C° 0 mm 1 mps 756 mmHg 40%
    19:00 +16°C° 0 mm 1 mps 756 mmHg 48%
    20:00 +13°C° 0 mm 0 mps 756 mmHg 56%
    21:00 +12°C° 0 mm 0 mps 756 mmHg 56%
    22:00 +12°C° 0 mm 1 mps 756 mmHg 57%
    23:00 +12°C° 0 mm 1 mps 756 mmHg 57%

    29 Mayo, Martes

    Tiempo Temperatura Precipitaciones Viento Presión Humedad
    00:00 +11°C° 0 mm 1 mps 757 mmHg 58%
    01:00 +11°C° 0 mm 1 mps 757 mmHg 59%
    02:00 +11°C° 0 mm 1 mps 757 mmHg 60%
    03:00 +11°C° 0 mm 1 mps 757 mmHg 61%
    04:00 +12°C° 0 mm 1 mps 757 mmHg 61%
    05:00 +12°C° 0 mm 1 mps 757 mmHg 62%
    06:00 +15°C° 0 mm 1 mps 757 mmHg 56%
    07:00 +17°C° 0 mm 2 mps 757 mmHg 50%
    08:00 +19°C° 0 mm 2 mps 757 mmHg 44%
    09:00 +20°C° 0 mm 2 mps 756 mmHg 40%
    10:00 +23°C° 0 mm 2 mps 756 mmHg 37%
    11:00 +24°C° 0 mm 2 mps 756 mmHg 33%
    12:00 +25°C° 0 mm 2 mps 755 mmHg 33%
    13:00 +25°C° 0 mm 3 mps 755 mmHg 33%
    14:00 +26°C° 0 mm 3 mps 754 mmHg 33%
    15:00 +25°C° 0 mm 3 mps 754 mmHg 35%
    16:00 +25°C° 0 mm 3 mps 753 mmHg 38%
    17:00 +25°C° 0 mm 3 mps 753 mmHg 41%
    18:00 +23°C° 0 mm 2 mps 752 mmHg 51%
    19:00 +20°C° 0 mm 2 mps 752 mmHg 60%
    20:00 +17°C° 0 mm 2 mps 751 mmHg 70%
    21:00 +17°C° 0 mm 2 mps 751 mmHg 72%
    22:00 +16°C° 0 mm 2 mps 751 mmHg 75%
    23:00 +15°C° 0 mm 2 mps 751 mmHg 77%

    30 Mayo, Miércoles

    Tiempo Temperatura Precipitaciones Viento Presión Humedad
    00:00 +14°C° 0 mm 2 mps 750 mmHg 78%
    01:00 +14°C° 0 mm 2 mps 750 mmHg 79%
    02:00 +14°C° 0 mm 2 mps 750 mmHg 80%
    03:00 +13°C° 0 mm 3 mps 749 mmHg 78%
    04:00 +13°C° 0 mm 3 mps 749 mmHg 76%
    05:00 +14°C° 0 mm 3 mps 749 mmHg 74%
    06:00 +17°C° 0 mm 4 mps 748 mmHg 67%
    07:00 +19°C° 0 mm 4 mps 748 mmHg 59%
    08:00 +21°C° 0 mm 4 mps 748 mmHg 52%
    09:00 +22°C° 0 mm 5 mps 747 mmHg 49%
    10:00 +25°C° 0 mm 5 mps 747 mmHg 46%
    11:00 +26°C° 0 mm 6 mps 746 mmHg 43%
    12:00 +27°C° 0 mm 6 mps 746 mmHg 42%
    13:00 +27°C° 0 mm 6 mps 746 mmHg 40%
    14:00 +27°C° 0 mm 6 mps 745 mmHg 39%
    15:00 +27°C° 0 mm 6 mps 745 mmHg 41%
    16:00 +27°C° 0 mm 5 mps 744 mmHg 42%
    17:00 +26°C° 0 mm 5 mps 744 mmHg 44%
    18:00 +23°C° 0 mm 4 mps 744 mmHg 51%
    19:00 +22°C° 0 mm 4 mps 744 mmHg 57%
    20:00 +20°C° 0 mm 3 mps 744 mmHg 64%
    21:00 +18°C° 0 mm 3 mps 744 mmHg 62%
    22:00 +17°C° 0 mm 3 mps 745 mmHg 61%
    23:00 +14°C° 0 mm 3 mps 745 mmHg 60%
    Mostrar más